Temp
-1 -1 -1 -1 -1 -0 -0 0 1 1 1 2 2 2 2 2 2 2 2 2 3 2 2 2 2 2 3 3 3 3 3 3 3 3 3 3 3 2 2 2 2 3 4 3 4 4 5
-2 -2 -2 -2 -1 -1 -1 -1 0 0 1 1 1 2 2 2 2 2 2 2 2 2 2 2 2 2 2 3 3 3 3 3 3 3 3 3 3 3 3 2 2 3 3 3 3 3 4
-2 -2 -2 -2 -1 -1 -1 -1 -1 -0 0 1 1 1 2 2 2 2 2 2 2 2 2 2 2 2 2 2 3 3 3 3 3 3 3 2 2 2 2 2 3 3 3 3 3 3 4
-3 -3 -2 -2 -2 -2 -1 -1 -0 -0 -0 1 1 1 1 2 2 2 2 2 1 2 2 2 1 2 2 2 3 3 3 3 3 2 2 2 2 2 2 2 2 2 2 3 2 2 3
-3 -3 -3 -2 -2 -2 -1 -1 -1 -0 -0 0 0 1 1 1 2 2 2 2 2 1 1 1 1 2 2 3 3 2 3 3 3 2 1 1 2 1 1 2 2 2 3 3 3 3 3
-3 -3 -3 -2 -2 -2 -1 -1 -1 -1 -0 -0 0 0 1 1 1 2 2 2 2 1 1 1 2 1 2 3 2 2 2 2 2 2 2 1 1 1 1 2 2 3 3 3 3 2 2
-3 -3 -2 -2 -2 -2 -1 -1 -1 -1 -1 -0 0 0 0 1 1 1 2 2 1 1 2 2 2 2 2 3 2 2 2 2 1 1 2 1 1 2 3 3 3 3 2 3 3 2 2
-3 -3 -2 -2 -2 -2 -1 -1 -1 -1 -1 -0 -0 0 0 0 1 1 1 3 2 2 2 1 1 2 2 2 2 2 2 1 1 1 1 1 2 3 3 3 3 3 2 3 2 1 2
-3 -3 -3 -2 -2 -2 -1 -1 -1 -1 -1 -0 0 0 0 0 0 1 1 1 1 1 1 1 1 1 1 1 2 2 2 1 2 1 1 2 2 2 2 2 2 3 2 3 3 1 1
-4 -3 -3 -2 -2 -1 -2 -1 -1 -1 -1 -0 0 0 -0 -0 -0 1 1 0 0 1 0 1 2 2 1 1 1 1 1 0 0 1 1 1 1 2 2 2 2 3 3 3 3 2 2
-4 -3 -3 -3 -2 -2 -2 -1 -1 -1 -0 -0 -0 0 -0 -0 -0 0 0 -0 -0 -0 -1 1 1 0 1 0 1 1 -0 -0 0 1 0 1 1 1 1 2 2 3 3 3 2 2 2
-4 -4 -3 -3 -3 -2 -2 -1 -1 -1 -1 -0 0 0 0 -0 -0 -0 -1 -1 -1 -1 -3 0 0 0 0 -1 0 1 0 -1 -0 -0 -0 0 1 1 1 2 2 2 2 3 2 2 0
-4 -4 -4 -4 -3 -2 -2 -2 -1 -1 -1 -0 0 0 -0 -1 -1 -1 -1 -2 -2 -2 1 1 1 0 -1 -1 -1 -0 -0 -1 -0 -1 -0 -0 0 1 1 1 1 1 2 -0 -0 -1 -1
-4 -4 -4 -4 -4 -3 -2 -2 -1 -1 -1 -0 -1 -1 -0 -1 -2 -1 -3 -2 -2 0 -0 -0 -0 -0 -1 -1 -1 -0 -1 -1 -1 -0 0 -0 -1 -0 0 1 1 1 2 1 -0 -2 -1
-4 -4 -4 -4 -4 -3 -3 -2 -2 -1 -1 -1 -1 -1 -1 -1 -2 -2 -2 -3 -1 -1 -1 -1 -1 -1 -2 -2 -1 -1 -1 -1 -1 -1 0 -0 -0 -0 -0 0 1 0 1 1 1 1 0
-4 -4 -4 -4 -4 -3 -3 -3 -2 -1 -1 -1 -1 -1 -1 -1 -2 -2 -3 -3 -3 -2 -2 -2 -1 -1 -2 -2 -2 -2 -2 -2 -2 -1 -1 -0 -1 -1 -1 -1 -0 0 1 0 0 -0 -0
-4 -4 -4 -4 -4 -3 -3 -2 -2 -2 -1 -1 -1 -2 -2 -2 -2 -3 -4 -4 -4 -3 -4 -2 -2 -2 -1 -1 -1 -2 -2 -2 -2 -1 -1 -1 -1 -3 -2 -2 -1 -1 -0 0 0 1 -1
-4 -4 -4 -4 -4 -4 -3 -3 -2 -2 -2 -2 -2 -3 -3 -3 -3 -5 -4 -4 -4 -3 -3 -4 -3 -3 -2 -2 -2 -2 -2 -1 -2 -2 -2 -2 -2 -3 -3 -2 -2 -2 -1 -1 -0 -1 -0
-4 -4 -4 -4 -4 -4 -4 -3 -3 -3 -2 -2 -2 -3 -4 -4 -4 -4 -5 -5 -4 -4 -3 -4 -4 -4 -3 -3 -3 -3 -2 -2 -1 -2 -3 -3 -3 -4 -5 -4 -3 -3 -2 -1 -1 -2 -2
-4 -4 -4 -4 -4 -4 -4 -4 -3 -3 -3 -3 -3 -4 -4 -5 -5 -5 -5 -5 -5 -4 -4 -4 -4 -4 -4 -4 -4 -3 -3 -3 -2 -3 -3 -3 -3 -2 -3 -3 -3 -4 -4 -3 -3 -3 -4
-4 -4 -4 -4 -4 -4 -4 -4 -4 -4 -3 -3 -3 -4 -4 -5 -5 -4 -4 -5 -4 -4 -4 -4 -4 -3 -4 -4 -4 -4 -4 -3 -4 -4 -4 -5 -3 -4 -4 -5 -5 -4 -5 -5 -5 -5 -5
-4 -4 -4 -4 -4 -4 -4 -4 -4 -4 -4 -4 -4 -4 -4 -4 -5 -5 -5 -5 -5 -5 -5 -4 -5 -4 -4 -4 -4 -3 -4 -4 -5 -5 -5 -5 -5 -6 -7 -7 -7 -6 -6 -7 -7 -7 -7
-4 -4 -4 -4 -4 -4 -4 -4 -4 -4 -4 -4 -4 -4 -4 -4 -4 -5 -5 -5 -5 -5 -5 -5 -5 -5 -5 -5 -4 -4 -4 -4 -4 -5 -5 -5 -5 -7 -9 -9 -8 -8 -9 -8 -8 -9 -9
-4 -4 -4 -4 -4 -4 -4 -4 -4 -4 -4 -4 -5 -5 -5 -5 -5 -5 -5 -6 -6 -6 -6 -5 -5 -6 -5 -5 -5 -6 -6 -6 -6 -6 -6 -5 -6 -6 -11 -10 -12 -11 -10 -10 -10 -11 -11
-5 -5 -5 -4 -4 -4 -4 -4 -4 -5 -5 -5 -5 -6 -6 -6 -5 -5 -5 -6 -6 -6 -7 -6 -6 -7 -7 -7 -7 -8 -8 -8 -8 -7 -7 -7 -7 -8 -10 -12 -13 -12 -11 -11 -11 -12 -12
-5 -5 -5 -5 -5 -5 -6 -6 -6 -6 -6 -6 -7 -7 -7 -7 -6 -6 -6 -7 -7 -8 -7 -7 -8 -8 -8 -8 -8 -8 -9 -9 -10 -10 -9 -9 -8 -8 -10 -11 -14 -12 -12 -12 -13 -12 -13
-6 -6 -6 -6 -7 -7 -7 -7 -7 -7 -7 -7 -7 -8 -8 -8 -8 -8 -8 -8 -8 -8 -8 -8 -8 -9 -8 -9 -9 -9 -10 -10 -11 -11 -12 -11 -11 -10 -11 -12 -12 -12 -13 -13 -13 -13 -13
-6 -6 -6 -7 -8 -8 -8 -8 -8 -8 -8 -8 -8 -8 -9 -10 -10 -9 -9 -10 -10 -10 -10 -9 -10 -10 -10 -9 -9 -10 -11 -11 -11 -12 -12 -11 -11 -12 -12 -12 -13 -13 -14 -13 -14 -14 -14
-6 -7 -8 -8 -9 -9 -9 -9 -9 -9 -9 -9 -9 -9 -9 -11 -11 -11 -11 -11 -11 -11 -11 -11 -10 -10 -10 -10 -10 -10 -11 -12 -12 -12 -12 -12 -12 -12 -12 -13 -13 -13 -14 -14 -14 -14 -15
Height
3073 3070 3066 3063 3061 3058 3056 3054 3053 3052 3052 3051 3051 3051 3051 3050 3050 3050 3050 3050 3050 3051 3053 3055 3057 3059 3062 3064 3067 3069 3070 3073 3075 3077 3081 3083 3087 3090 3093 3098 3103 3106 3109 3112 3111 3113 3114
3068 3065 3062 3059 3057 3054 3052 3050 3048 3048 3047 3047 3046 3046 3048 3048 3048 3048 3048 3047 3048 3049 3051 3053 3055 3058 3060 3062 3063 3067 3068 3070 3072 3075 3079 3082 3086 3090 3095 3097 3101 3105 3108 3110 3110 3111 3113
3065 3061 3058 3054 3051 3049 3047 3045 3044 3043 3042 3042 3042 3041 3043 3045 3045 3045 3046 3046 3046 3047 3049 3050 3052 3054 3056 3060 3060 3064 3066 3069 3071 3073 3077 3081 3084 3088 3091 3095 3099 3102 3105 3108 3106 3108 3112
3062 3057 3053 3050 3047 3045 3042 3040 3038 3038 3038 3037 3037 3038 3038 3039 3043 3043 3043 3044 3044 3045 3046 3048 3049 3052 3054 3055 3057 3061 3063 3066 3068 3071 3075 3078 3081 3086 3088 3092 3095 3099 3103 3104 3105 3106 3111
3059 3055 3051 3047 3044 3042 3039 3036 3034 3033 3032 3033 3033 3033 3033 3036 3037 3040 3040 3041 3041 3042 3043 3045 3047 3049 3051 3053 3055 3058 3061 3064 3065 3067 3071 3075 3079 3083 3086 3089 3092 3095 3097 3100 3103 3106 3106
3058 3053 3049 3045 3042 3039 3036 3033 3030 3029 3028 3027 3028 3029 3029 3030 3032 3036 3037 3038 3039 3040 3040 3041 3044 3049 3048 3050 3052 3055 3058 3061 3064 3066 3070 3074 3077 3078 3081 3084 3084 3088 3093 3097 3098 3100 3105
3055 3050 3046 3042 3038 3035 3032 3029 3027 3025 3024 3023 3022 3023 3024 3026 3028 3029 3034 3036 3039 3039 3038 3041 3041 3042 3044 3047 3049 3052 3055 3058 3061 3065 3066 3069 3071 3070 3075 3081 3084 3087 3092 3094 3096 3097 3100
3052 3048 3044 3040 3036 3032 3029 3027 3024 3022 3020 3019 3018 3018 3020 3022 3023 3025 3028 3032 3034 3036 3037 3036 3039 3039 3043 3044 3046 3048 3052 3056 3058 3060 3065 3068 3066 3072 3077 3080 3082 3084 3087 3087 3090 3094 3097
3048 3046 3042 3038 3034 3030 3027 3024 3022 3019 3017 3015 3014 3014 3015 3017 3019 3021 3024 3027 3031 3032 3034 3035 3035 3037 3041 3043 3044 3045 3049 3052 3056 3058 3060 3062 3067 3070 3073 3075 3078 3081 3086 3085 3083 3089 3095
3045 3042 3039 3036 3032 3029 3025 3022 3019 3016 3015 3012 3010 3010 3010 3012 3017 3018 3021 3024 3024 3030 3032 3032 3030 3032 3036 3038 3041 3043 3047 3051 3052 3055 3060 3062 3065 3066 3068 3071 3075 3076 3082 3085 3084 3086 3089
3041 3037 3035 3033 3030 3026 3023 3019 3017 3015 3012 3010 3007 3006 3006 3008 3011 3014 3019 3020 3023 3026 3030 3027 3025 3027 3031 3035 3036 3038 3043 3046 3049 3052 3057 3058 3060 3063 3066 3068 3071 3073 3077 3081 3084 3085 3086
3039 3036 3033 3029 3027 3024 3020 3017 3014 3012 3009 3007 3004 3003 3003 3005 3008 3011 3013 3017 3021 3027 3023 3019 3020 3022 3026 3029 3032 3035 3039 3044 3048 3052 3053 3056 3057 3060 3063 3065 3068 3071 3075 3078 3081 3083 3081
3037 3033 3028 3026 3023 3021 3018 3014 3012 3009 3007 3004 3002 3001 3001 3002 3005 3008 3011 3015 3021 3018 3018 3016 3016 3018 3023 3024 3029 3033 3035 3039 3043 3047 3049 3052 3054 3056 3058 3061 3065 3068 3071 3076 3081 3079 3074
3036 3032 3028 3023 3019 3017 3015 3012 3009 3007 3006 3003 3001 2999 2999 3000 3004 3006 3009 3014 3014 3011 3012 3012 3013 3017 3019 3022 3028 3030 3033 3035 3038 3041 3043 3047 3051 3052 3053 3056 3058 3061 3065 3064 3068 3070 3068
3035 3031 3027 3022 3019 3016 3012 3010 3007 3005 3004 3002 3000 2999 2999 2999 3001 3003 3009 3010 3008 3008 3009 3011 3013 3014 3017 3020 3024 3027 3029 3032 3034 3037 3041 3042 3044 3045 3048 3051 3056 3056 3057 3062 3062 3062 3063
3033 3030 3027 3022 3018 3014 3011 3008 3005 3003 3001 3000 2999 2998 2998 2997 2999 3002 3004 3004 3006 3007 3009 3009 3010 3011 3012 3014 3020 3023 3025 3026 3028 3032 3036 3037 3040 3042 3045 3048 3050 3051 3056 3059 3059 3060 3060
3034 3030 3025 3021 3016 3012 3009 3007 3004 3001 2999 2998 2997 2996 2996 2996 2997 3000 3001 3002 3003 3005 3007 3009 3009 3010 3011 3011 3015 3018 3019 3021 3023 3026 3030 3033 3035 3039 3041 3042 3044 3048 3049 3051 3053 3053 3051
3035 3030 3025 3021 3016 3012 3008 3005 3002 2999 2998 2996 2995 2995 2994 2994 2997 2997 2998 2999 3000 3001 3004 3005 3007 3007 3008 3008 3010 3014 3014 3016 3018 3021 3024 3029 3031 3033 3037 3038 3040 3042 3044 3046 3046 3048 3047
3036 3031 3026 3023 3018 3013 3008 3005 3002 2998 2996 2994 2993 2993 2993 2993 2994 2995 2996 2996 2997 2999 2999 3000 3002 3004 3004 3004 3006 3007 3010 3012 3015 3017 3021 3024 3026 3030 3035 3038 3037 3037 3039 3041 3042 3043 3044
3037 3032 3028 3024 3020 3015 3010 3005 3002 2998 2995 2994 2993 2993 2992 2992 2992 2993 2994 2993 2993 2994 2996 2996 2997 2997 3000 3001 3000 3001 3005 3009 3012 3014 3017 3019 3020 3021 3024 3024 3028 3031 3034 3036 3038 3041 3041
3039 3034 3029 3023 3021 3015 3011 3007 3002 2999 2995 2994 2992 2991 2991 2990 2990 2989 2990 2991 2989 2989 2991 2991 2992 2993 2995 2995 2996 2998 3001 3004 3007 3010 3013 3016 3017 3020 3021 3023 3025 3026 3030 3032 3035 3038 3040
3037 3035 3028 3023 3019 3015 3011 3008 3004 2999 2996 2994 2992 2990 2988 2987 2986 2986 2985 2984 2985 2985 2987 2986 2987 2987 2988 2990 2992 2993 2997 3000 3002 3005 3009 3011 3013 3016 3020 3022 3024 3026 3029 3031 3033 3035 3037
3034 3029 3023 3019 3014 3010 3007 3003 3001 2998 2995 2992 2989 2987 2986 2984 2982 2982 2981 2980 2980 2981 2981 2981 2983 2984 2985 2988 2989 2991 2993 2996 2998 3001 3004 3008 3010 3014 3018 3021 3023 3027 3026 3028 3030 3032 3035
3032 3025 3022 3018 3012 3007 3002 2999 2996 2993 2991 2990 2987 2985 2983 2981 2979 2977 2976 2976 2975 2976 2976 2977 2978 2980 2983 2984 2987 2989 2992 2995 2997 2999 3002 3004 3007 3011 3015 3020 3026 3022 3023 3025 3027 3030 3032
3028 3025 3021 3015 3008 3004 2999 2994 2991 2988 2986 2984 2983 2981 2979 2976 2975 2973 2971 2971 2972 2973 2973 2974 2976 2979 2980 2982 2986 2989 2992 2994 2995 2996 2999 3002 3004 3007 3012 3016 3020 3020 3021 3023 3025 3030 3031
3025 3021 3015 3010 3007 3000 2995 2991 2987 2984 2981 2978 2977 2975 2974 2973 2970 2969 2968 2968 2968 2969 2970 2971 2973 2974 2977 2980 2981 2983 2987 2990 2992 2994 2997 2999 3001 3005 3008 3011 3016 3017 3018 3021 3024 3027 3028
3022 3016 3012 3006 3002 2998 2994 2990 2986 2982 2980 2976 2972 2970 2968 2968 2966 2966 2964 2964 2965 2965 2967 2968 2970 2973 2975 2976 2979 2981 2983 2986 2988 2991 2995 2998 3000 3003 3005 3008 3012 3015 3017 3020 3025 3030 3026
3018 3013 3006 3001 2998 2995 2991 2987 2983 2980 2976 2974 2970 2966 2964 2961 2961 2960 2960 2961 2961 2962 2963 2967 2970 2970 2972 2975 2976 2977 2979 2982 2986 2989 2992 2995 2999 3002 3006 3008 3013 3014 3016 3021 3022 3021 3022
3013 3010 3005 3000 2995 2992 2988 2984 2980 2975 2971 2968 2965 2961 2958 2956 2955 2954 2954 2955 2957 2958 2962 2962 2964 2965 2967 2970 2972 2973 2976 2979 2983 2986 2990 2995 2997 3000 3005 3007 3009 3011 3014 3016 3017 3017 3017
Wind_Speed
24 23 22 21 20 18 18 18 18 16 15 14 13 13 13 13 11 9 8 9 12 13 14 15 17 18 19 18 18 7 17 17 18 19 18 18 21 20 21 16 17 19 20 10 12 18 18
25 25 24 23 22 22 20 18 17 18 17 15 14 11 13 14 12 10 8 8 11 13 15 15 17 17 18 17 18 16 10 15 16 18 18 20 19 16 16 14 16 18 17 14 16 16 20
26 25 25 25 24 24 23 22 20 18 18 17 16 13 12 13 13 11 9 8 10 12 14 14 15 17 18 17 16 16 19 13 13 16 19 20 19 21 20 13 17 11 20 15 17 22 21
26 25 23 22 22 21 20 20 21 19 19 18 17 16 13 12 15 12 10 8 9 12 13 14 16 16 15 16 16 13 17 18 15 19 20 23 24 23 17 15 20 21 13 21 20 17 17
23 23 22 21 20 21 20 18 16 18 18 19 18 17 16 14 14 14 11 10 10 11 14 15 15 15 14 17 16 16 14 15 18 24 26 27 23 26 21 20 14 20 17 23 18 22 20
23 22 25 23 21 19 18 19 18 17 17 17 19 18 17 15 16 14 12 11 11 12 14 15 16 13 13 16 17 19 15 17 17 22 24 24 24 28 25 22 23 22 18 21 21 31 24
23 23 22 25 23 22 20 18 20 17 16 15 17 19 17 16 16 17 14 12 12 13 15 14 9 18 9 16 18 19 19 20 20 22 26 26 27 32 29 24 16 11 5 14 25 31 26
25 25 22 23 23 22 20 18 17 16 14 14 15 16 18 17 16 16 17 13 14 12 12 16 16 16 17 9 17 20 22 23 25 26 24 23 28 20 19 20 22 13 8 15 27 25 25
24 21 22 23 22 20 19 18 16 15 14 13 14 14 16 17 17 17 18 15 13 12 11 12 14 21 14 15 13 20 25 25 24 26 27 26 10 20 19 21 18 18 11 24 29 28 16
22 22 21 23 21 19 18 17 15 14 14 12 12 13 13 16 17 15 15 21 19 14 9 12 20 20 21 18 19 17 21 25 22 26 24 19 13 11 25 24 20 21 20 16 23 30 14
25 24 24 23 21 20 18 17 15 14 15 13 12 11 11 14 15 14 15 17 21 17 2 7 17 16 19 22 12 21 24 28 21 22 27 17 20 17 17 24 21 22 19 15 18 25 14
24 27 27 25 21 20 18 17 16 14 16 15 13 9 9 11 13 14 14 18 19 12 7 12 12 19 23 27 22 18 30 30 21 18 25 18 12 15 22 20 16 16 15 14 14 16 8
24 23 24 23 20 18 18 17 16 15 14 15 12 7 5 5 9 13 14 20 14 6 8 12 14 19 24 29 23 19 31 32 20 21 22 26 18 15 15 20 23 20 19 4 2 4 5
25 24 23 21 19 16 17 17 15 15 13 13 11 5 2 8 5 12 17 25 8 8 12 7 13 16 26 24 23 19 29 33 31 23 21 20 10 21 19 22 22 30 27 10 7 5 4
25 23 25 22 21 17 16 16 15 14 12 10 8 6 2 7 15 15 18 26 8 3 11 12 11 23 15 22 16 23 26 32 33 26 15 17 16 18 18 24 22 27 35 19 3 5 3
24 24 24 24 22 20 17 16 15 14 13 11 8 5 3 3 11 19 23 25 15 1 2 17 10 15 21 24 17 21 22 23 29 31 27 13 10 17 20 22 23 16 28 17 9 4 5
23 23 22 23 24 22 20 18 16 15 13 11 9 6 5 2 8 18 23 17 25 24 9 14 13 18 16 20 20 21 20 14 29 24 31 18 11 12 18 17 25 20 20 16 10 8 4
24 23 22 23 23 24 22 20 17 15 13 11 9 5 4 3 8 18 16 18 20 18 19 26 9 14 15 19 23 25 24 25 20 27 27 28 11 10 15 14 19 25 21 22 9 6 7
23 23 24 25 24 24 24 23 21 18 14 11 8 6 6 7 5 11 19 19 18 18 18 19 15 17 15 23 21 27 26 24 17 21 17 25 11 10 4 10 15 18 22 23 20 11 7
23 23 24 24 24 24 24 24 22 20 16 11 7 5 4 8 13 10 11 15 17 17 20 20 19 23 21 21 20 20 23 21 22 19 19 22 15 12 10 9 14 16 21 20 18 9 9
21 22 23 24 24 23 23 23 23 21 18 14 9 6 7 7 12 20 18 16 13 17 19 19 22 24 25 28 28 23 19 21 20 21 21 18 14 14 11 10 11 13 15 15 15 14 10
23 25 25 26 25 25 23 22 21 21 20 17 13 10 11 13 14 17 20 21 21 19 17 20 22 22 22 20 19 18 22 23 18 22 22 22 13 16 12 10 9 9 10 10 11 11 12
26 28 28 27 26 26 25 23 21 19 18 17 14 12 11 10 12 13 19 21 19 18 19 19 17 17 20 20 18 16 18 20 16 20 24 20 16 16 8 8 6 5 10 11 11 9 10
28 29 30 31 30 28 26 25 24 21 19 18 15 13 13 13 12 12 15 15 16 17 20 15 18 18 18 16 14 14 14 14 14 15 18 16 17 14 11 10 1 6 7 6 7 6 6
29 31 32 32 32 31 28 25 23 22 21 19 18 17 15 16 15 14 12 14 15 15 18 16 14 14 14 16 16 12 12 11 11 13 14 15 18 9 9 8 4 6 8 8 8 6 4
30 32 32 31 29 26 24 22 21 19 18 19 18 19 18 17 17 14 12 11 10 12 15 16 18 20 21 21 14 7 6 8 8 11 13 14 14 9 9 5 5 4 9 8 5 5 5
31 31 31 29 26 21 19 19 19 20 20 18 16 16 19 19 20 18 17 15 14 15 14 17 18 21 22 16 11 7 7 10 10 12 14 12 10 8 10 4 3 10 10 6 4 3 3
30 30 29 26 23 21 20 21 21 22 23 22 19 18 17 19 19 19 19 17 17 17 15 18 21 21 20 14 11 7 7 11 10 13 15 10 9 8 7 4 5 11 9 5 3 7 9
30 29 28 25 23 22 23 24 25 25 24 24 22 20 18 16 18 17 20 21 22 20 16 18 20 19 16 15 12 9 9 12 13 12 15 10 7 7 8 6 9 12 5 5 6 8 12
Wind_Direction
322 317 314 312 311 309 305 296 290 286 281 276 270 268 269 268 265 266 267 246 231 224 219 217 219 218 216 215 218 213 209 206 207 206 203 205 195 180 181 183 181 181 168 165 201 192 197
322 318 316 311 306 303 300 298 294 285 280 275 270 264 271 275 265 261 262 245 226 218 216 213 218 220 221 218 218 206 197 200 203 208 202 201 198 174 164 160 191 176 174 188 219 197 192
325 318 313 309 308 303 297 291 290 290 283 275 271 258 250 260 271 258 252 244 223 215 213 212 218 221 223 216 222 217 221 206 207 203 201 199 181 173 172 161 159 168 178 174 231 223 211
336 329 324 325 322 319 313 300 280 280 281 277 270 261 251 232 263 260 248 242 226 210 206 210 217 223 224 223 221 216 218 213 205 192 185 193 185 175 168 177 189 205 196 192 203 218 212
341 341 338 333 328 322 325 319 301 285 276 271 271 265 251 244 227 265 251 239 226 213 203 207 215 222 221 222 217 213 210 206 198 185 187 189 187 182 181 184 179 201 201 195 202 223 212
341 347 343 335 328 321 319 321 318 302 288 269 264 263 256 240 235 232 254 243 233 222 212 208 217 218 224 219 216 205 200 194 194 190 189 188 192 192 192 188 188 192 196 201 192 194 208
342 336 337 341 332 328 328 321 323 312 295 282 265 256 253 249 232 223 237 248 237 231 227 220 212 220 221 219 214 205 203 191 187 193 191 191 197 203 202 203 191 155 224 232 202 193 199
334 338 338 337 336 331 329 322 323 317 305 291 276 262 247 244 230 228 212 234 247 241 228 224 229 227 218 218 207 198 199 196 192 193 194 199 215 213 207 206 204 241 284 193 173 181 205
333 338 339 339 336 332 332 325 321 323 315 300 285 271 248 235 232 227 214 206 233 242 241 236 235 230 231 226 215 209 201 199 205 197 202 210 202 215 201 195 209 226 210 157 182 174 195
328 331 338 337 335 334 334 331 323 326 318 315 300 284 259 232 228 221 221 208 194 223 247 254 231 225 217 212 221 204 207 202 199 208 206 221 208 200 197 198 207 225 218 218 195 181 180
325 324 326 328 333 337 336 335 332 327 322 322 313 290 267 234 225 210 211 218 201 183 245 219 215 210 203 207 221 203 193 204 205 201 196 209 215 196 199 212 212 221 221 212 197 206 205
329 323 321 323 324 328 332 334 337 330 330 324 319 294 267 232 219 196 199 203 191 177 241 204 197 201 196 202 211 200 190 203 204 192 206 214 209 207 221 214 210 217 204 209 198 209 236
345 336 334 327 325 322 326 329 334 337 332 337 331 297 259 226 208 203 193 184 173 206 210 214 202 201 199 201 199 199 195 196 191 190 198 214 217 212 211 209 197 201 190 117 195 211 222
355 353 345 342 340 330 325 326 330 334 339 334 343 323 251 174 184 200 195 181 212 217 204 202 204 191 192 202 206 198 204 201 201 199 197 196 201 218 215 211 203 207 197 177 191 192 194
3 357 356 351 351 347 336 331 326 326 331 335 343 342 299 207 189 190 201 192 218 222 203 172 167 173 179 206 213 203 208 209 211 204 197 201 214 210 207 211 204 202 203 215 229 230 158
359 358 360 359 356 356 349 339 330 324 324 322 325 315 293 232 204 190 190 209 217 218 210 177 194 189 189 195 203 199 197 208 216 217 208 207 186 201 206 207 204 199 205 214 216 199 210
3 3 0 3 4 1 359 351 340 329 323 315 308 310 306 274 206 197 198 208 227 228 266 206 206 201 203 204 215 201 200 212 211 212 210 204 200 180 194 200 207 202 197 207 200 220 196
7 9 6 5 6 6 3 0 351 341 328 317 299 287 287 261 209 197 214 222 233 231 239 248 240 228 220 205 194 203 209 213 213 215 209 207 190 161 191 200 202 205 207 203 194 198 202
12 13 14 13 12 8 7 7 1 356 347 330 305 281 274 218 221 224 229 238 248 249 245 253 250 240 235 194 194 203 213 215 219 212 204 201 200 140 166 216 207 207 209 214 220 216 193
11 13 15 15 14 13 10 8 9 4 0 344 313 286 265 210 235 233 247 252 251 251 244 243 236 225 225 241 212 210 209 212 217 209 201 193 191 203 201 188 192 200 209 213 216 216 207
3 3 3 1 3 6 5 5 5 8 8 3 336 294 280 260 242 251 255 258 266 248 244 238 232 232 245 244 224 218 220 224 212 206 203 201 213 203 175 177 182 178 193 205 214 223 222
349 347 346 344 344 345 347 350 354 356 359 3 355 329 297 281 266 255 252 256 253 255 247 243 231 231 230 232 229 229 225 218 207 205 198 197 178 183 158 178 191 197 200 203 208 212 227
341 338 336 337 336 337 335 334 334 335 340 344 344 339 323 306 290 272 259 254 259 249 247 240 238 229 225 223 224 224 217 207 207 199 199 201 192 179 158 184 190 224 219 222 223 223 228
340 337 337 336 334 332 329 327 326 324 321 319 320 319 315 308 298 284 270 264 259 248 238 238 223 212 215 213 203 190 190 197 200 193 198 202 193 175 142 151 196 192 195 195 195 195 203
337 337 336 334 331 331 330 329 324 319 313 307 302 299 298 294 294 287 275 265 259 245 233 230 216 202 192 177 163 152 155 168 176 184 188 185 185 155 160 167 153 185 184 171 165 171 211
337 336 335 335 335 334 336 344 345 344 335 320 305 293 289 285 282 279 270 251 237 229 220 213 203 195 181 175 169 169 162 170 167 169 180 183 195 188 154 143 177 163 181 194 186 238 233
337 337 336 337 336 337 341 344 343 344 345 350 339 306 284 280 277 270 256 243 227 214 210 206 188 182 187 183 179 164 155 169 155 162 163 166 168 157 145 115 153 166 161 166 180 193 223
337 336 336 335 333 331 333 333 334 332 331 334 338 337 304 279 269 262 252 237 233 224 209 200 188 194 191 192 194 171 168 173 171 166 165 165 161 158 162 154 205 173 175 198 224 267 282
335 335 335 334 330 326 328 329 331 330 325 324 327 329 319 283 269 262 244 235 229 224 220 203 201 202 197 196 196 186 164 167 174 166 174 169 176 168 169 172 143 158 197 261 277 287 296